This is the latest recevied weather packets stored in our database for station/object KC1TEM-13. If no packets are shown the sender has not sent any weather packets the latest 10 day(s).
| Time | Temp. | Humidity | Pressure | Rain* | Wind** | Luminosity | Snow |
|---|---|---|---|---|---|---|---|
| 1777630756 | 6.11° C | 85% | 1009.1 hPa | 0 mm | - | 21 W/m² | - |
| 1777630453 | 6.11° C | 85% | 1009.1 hPa | 0 mm | - | 22 W/m² | - |
| 1777630151 | 6.11° C | 86% | 1009 hPa | 0 mm | - | 16 W/m² | - |
| 1777629849 | 6.11° C | 86% | 1009.1 hPa | 0 mm | - | 15 W/m² | - |
| 1777629545 | 6.11° C | 87% | 1009 hPa | 0 mm | - | 11 W/m² | - |
| 1777629241 | 6.11° C | 87% | 1009.2 hPa | 0 mm | - | 8 W/m² | - |
| 1777628937 | 6.11° C | 86% | 1008.9 hPa | 0 mm | - | 6 W/m² | - |
| 1777628330 | 6.11° C | 87% | 1008.9 hPa | 0 mm | - | 2 W/m² | - |
| 1777628026 | 6.11° C | 88% | 1008.9 hPa | 0 mm | - | 1 W/m² | - |
| 1777627726 | 6.11° C | 88% | 1008.8 hPa | 0 mm | - | 1 W/m² | - |
| 1777627425 | 6.11° C | 87% | 1008.7 hPa | 0 mm | - | 0 W/m² | - |
| 1777627121 | 6.11° C | 87% | 1008.8 hPa | 0 mm | - | 0 W/m² | - |
| 1777626818 | 6.11° C | 86% | 1008.7 hPa | 0 mm | - | 0 W/m² | - |
| 1777626514 | 6.11° C | 86% | 1008.7 hPa | 0 mm | - | 0 W/m² | - |
| 1777626214 | 6.11° C | 86% | 1008.5 hPa | 0 mm | - | 0 W/m² | - |
| 1777625913 | 6.67° C | 86% | 1008.6 hPa | 0 mm | - | 0 W/m² | - |
| 1777625609 | 6.67° C | 85% | 1008.5 hPa | 0 mm | - | 0 W/m² | - |
| 1777625304 | 6.67° C | 85% | 1008.3 hPa | 0 mm | - | 0 W/m² | - |
| 1777625002 | 6.67° C | 85% | 1008.4 hPa | 0 mm | - | 0 W/m² | - |
| 1777624698 | 7.22° C | 85% | 1008.3 hPa | 0 mm | - | 0 W/m² | - |
| 1777624394 | 7.22° C | 84% | 1008.5 hPa | 0 mm | - | 0 W/m² | - |
| 1777624091 | 7.22° C | 83% | 1008.1 hPa | 0 mm | - | 0 W/m² | - |
| 1777623787 | 7.78° C | 83% | 1008.2 hPa | 0 mm | - | 0 W/m² | - |
| 1777623484 | 7.78° C | 83% | 1008.1 hPa | 0 mm | - | 0 W/m² | - |
| 1777623182 | 7.78° C | 82% | 1008.2 hPa | 0 mm | - | 0 W/m² | - |
* Rain latest hour (hover to see other rain measurements)
** Current wind speed in m/s (hover to see current wind gust speed)